Location: Jetmore
(38.0845°N, 99.8935°W)
Time: 02:36:09
(UTC+00:00)

Nauka - Pass Details

Date: 25 September 2021
Orbit: 418 x 423 km, 51.6° (Epoch: 14 October)

Event Time Altitude Azimuth Distance (km) Brightness Sun altitude
Rises 01:02:21 0° 289° (WNW) 2,359 ? -6.6°
Reaches altitude 10° 01:05:47 10° 326° (NW) 1,498 ? -7.3°
Maximum altitude 01:06:52 11° 345° (NNW) 1,430 ? -7.5°
Drops below altitude 10° 01:07:56 10° 4° (N) 1,500 ? -7.7°
Enters shadow 01:11:28 - 42° (NE) 2,393 ? -8.4°
